Location: Buckland
(65.9785°N, 161.1281°W)
Time: 03:23:28
(UTC+00:00)

Transit 4A - Pass Details

Date: 30 November 2020
Orbit: 864 x 980 km, 66.8° (Epoch: 26 January)

Event Time Altitude Azimuth Distance (km) Brightness Sun altitude
Rises 23:41:52 0° 283° (WNW) 3,689 11.1 1.2°
Reaches altitude 10° 23:44:26 10° 284° (WNW) 2,743 10.4 1.2°
Maximum altitude 23:50:54 89° 12° (NNE) 988 8.2 1.0°
Drops below altitude 10° 23:57:18 10° 106° (ESE) 2,710 10.3 0.8°
Sets 23:59:50 0° 107° (ESE) 3,643 11.0 0.7°
